Weather History for Vicksburg, MS

Change the Weather History Date:

Thursday, January 30, 2014

  Actual Average Record
Temperature  
Mean Temperature 30 °F 47 °F  
Max Temperature 50 °F 57 °F 80 °F (1975)
Min Temperature 9 °F 36 °F 9 °F (2014)
Degree Days  
Heating Degree Days 35 19  
Month to date heating degree days 751 591  
Since 1 July heating degree days 1876 1528  
Cooling Degree Days 0 0  
Month to date cooling degree days 0 0  
Year to date cooling degree days 0 0  
Moisture  
Dew Point 10 °F    
Average Humidity 50    
Maximum Humidity 84    
Minimum Humidity 15    
Precipitation  
Precipitation 0.00 in 0.19 in 5.14 in (1999)
Month to date precipitation 2.26 4.89  
Year to date precipitation 2.26 4.89  
Sea Level Pressure  
Sea Level Pressure 30.24 in    
Wind  
Wind Speed 7 mph (SSE)    
Max Wind Speed 14 mph    
Max Gust Speed 19 mph    
Visibility 10 miles    
Events      
T = Trace of Precipitation, MM = Missing Value Source: NWS Daily Summary

Daily Weather History Graph

Daily Weather History Graph

Search for Another Location

Airport:

Trip Planner

Search our weather history database for the weather conditions in past years. The results will help you decide how hot, cold, wet, or windy it might be!

Date:

Astronomy

Jan. 30, 2014 Rise Set
Actual Time 6:59 AM CST 5:35 PM CST
Civil Twilight 6:33 AM CST 6:01 PM CST
Nautical Twilight 6:04 AM CST 6:30 PM CST
Astronomical Twilight 5:35 AM CST 6:59 PM CST
Moon 6:27 AM CST (1/30) 5:44 PM CST (1/30)
Length of Visible Light 11h 27m
Length of Day
10h 36m
Waning Crescent, 0% of the Moon is Illuminated
Jan 30
Waning Crescent
Jan 30
New
Feb 6
First Quarter
Feb 14
Full
Feb 22
Last Quarter

Hourly Weather History & Observations

Time (CST) Temp. Windchill Dew Point Humidity Pressure Visibility Wind Dir Wind Speed Gust Speed Precip Events Conditions
12:53 AM 17.1 °F 7.6 °F 10.0 °F 74% 30.37 in 10.0 mi SE 6.9 mph - N/A   Clear
1:53 AM 19.0 °F 10.0 °F 12.9 °F 77% 30.35 in 10.0 mi ESE 6.9 mph - N/A   Clear
2:53 AM 16.0 °F 10.4 °F 10.9 °F 81% 30.35 in 10.0 mi South 3.5 mph - N/A   Clear
3:53 AM 16.0 °F - 10.9 °F 81% 30.34 in 10.0 mi Calm Calm - N/A   Clear
4:53 AM 12.9 °F 5.2 °F 8.1 °F 81% 30.33 in 10.0 mi South 4.6 mph - N/A   Clear
5:53 AM 14.0 °F - 9.0 °F 80% 30.35 in 10.0 mi Calm Calm - N/A   Clear
6:53 AM 10.9 °F 4.7 °F 7.0 °F 84% 30.34 in 10.0 mi SSE 3.5 mph - N/A   Clear
7:53 AM 21.9 °F 14.5 °F 12.9 °F 68% 30.32 in 10.0 mi SSE 5.8 mph - N/A   Clear
8:53 AM 28.9 °F 21.1 °F 10.9 °F 47% 30.32 in 10.0 mi South 8.1 mph - N/A   Clear
9:53 AM 34.0 °F 26.0 °F 7.0 °F 32% 30.34 in 10.0 mi South 10.4 mph - N/A   Clear
10:53 AM 37.0 °F 30.4 °F 5.0 °F 26% 30.31 in 10.0 mi South 9.2 mph - N/A   Clear
11:53 AM 41.0 °F 34.7 °F 5.0 °F 23% 30.27 in 10.0 mi South 10.4 mph - N/A   Clear
12:53 PM 44.1 °F 38.6 °F 6.1 °F 21% 30.21 in 10.0 mi South 10.4 mph - N/A   Clear
1:53 PM 46.9 °F - 3.0 °F 16% 30.19 in 10.0 mi South 10.4 mph - N/A   Clear
2:53 PM 48.9 °F - 3.9 °F 16% 30.16 in 10.0 mi South 11.5 mph - N/A   Clear
3:53 PM 48.9 °F - 8.1 °F 19% 30.14 in 10.0 mi South 9.2 mph - N/A   Clear
4:53 PM 46.9 °F - 10.0 °F 22% 30.13 in 10.0 mi South 8.1 mph - N/A   Clear
5:53 PM 39.0 °F 34.8 °F 12.9 °F 34% 30.11 in 10.0 mi South 5.8 mph - N/A   Clear
6:53 PM 32.0 °F 28.7 °F 12.9 °F 45% 30.12 in 10.0 mi South 3.5 mph - N/A   Clear
7:53 PM 36.0 °F 29.6 °F 15.1 °F 43% 30.12 in 10.0 mi SSE 8.1 mph - N/A   Clear
8:53 PM 37.0 °F 31.0 °F 15.1 °F 41% 30.11 in 10.0 mi South 8.1 mph - N/A   Clear
9:53 PM 36.0 °F 32.1 °F 17.1 °F 46% 30.12 in 10.0 mi South 4.6 mph - N/A   Clear
10:53 PM 33.1 °F 26.9 °F 18.0 °F 54% 30.12 in 10.0 mi SE 6.9 mph - N/A   Partly Cloudy
11:53 PM 34.0 °F 27.2 °F 19.9 °F 56% 30.13 in 10.0 mi SSE 8.1 mph - N/A   Partly Cloudy